GPS BIII-5 (PRN 11)

Last updated on Wed Aug 19 2026 00:03:21 GMT+0000 (Coordinated Universal Time)

1 48859U 21054A 26230.39889120 -.00000110 00000+0 00000+0 0 9990 2 48859 55.1401 329.9579 0027630 229.4087 179.6647 2.00565320 38000
UTC large
Height (km)
Speed (km/s)
/
Latitude / Longitude
Inclination (degrees)
Orbital Period (minutes)
Azimuth
Elevation
Range (km)
Doppler Factor

Next 0 passes for location: London (51.5072 / 0.1276)

No passes found over London.
GPS BIII-5 (PRN 11)